This is the latest recevied weather packets stored in our database for station/object Waldburg. If no packets are shown the sender has not sent any weather packets the latest 10 day(s).
| Time | Temp. | Humidity | Pressure | Rain* | Wind** | Luminosity | Snow |
|---|---|---|---|---|---|---|---|
| 1788273131 | 23.89° C | 48% | 1018.8 hPa | 0 mm | - | - | - |
| 1788271330 | 23.89° C | 47% | 1019 hPa | 0 mm | - | - | - |
| 1788269530 | 23.89° C | 49% | 1019.1 hPa | 0 mm | - | - | - |
| 1788267730 | 23.33° C | 50% | 1019.3 hPa | 0 mm | - | - | - |
| 1788265930 | 23.33° C | 52% | 1019.5 hPa | 0 mm | - | - | - |
| 1788264131 | 23.33° C | 51% | 1019.6 hPa | 0 mm | - | - | - |
| 1788262331 | 22.78° C | 53% | 1019.6 hPa | 0 mm | - | - | - |
| 1788260531 | 22.22° C | 56% | 1019.7 hPa | 0 mm | - | - | - |
| 1788258730 | 22.22° C | 58% | 1019.8 hPa | 0 mm | - | - | - |
| 1788256930 | 22.22° C | 60% | 1020 hPa | 0 mm | - | - | - |
| 1788255130 | 21.11° C | 64% | 1020.4 hPa | 0 mm | - | - | - |
| 1788253331 | 20.56° C | 64% | 1020.3 hPa | 0 mm | - | - | - |
| 1788251530 | 19.44° C | 70% | 1020.4 hPa | 0 mm | - | - | - |
| 1788249730 | 18.89° C | 72% | 1020.2 hPa | 0 mm | - | - | - |
| 1788247930 | 16.67° C | 76% | 1020 hPa | 0 mm | - | - | - |
| 1788246130 | 15.56° C | 79% | 1019.9 hPa | 0 mm | - | - | - |
| 1788244330 | 15° C | 78% | 1019.8 hPa | 0 mm | - | - | - |
| 1788242531 | 15° C | 78% | 1019.6 hPa | 0 mm | - | - | - |
| 1788240729 | 14.44° C | 77% | 1019.5 hPa | 0 mm | - | - | - |
| 1788238929 | 14.44° C | 78% | 1019.6 hPa | 0 mm | - | - | - |
| 1788237130 | 14.44° C | 78% | 1019.5 hPa | 0 mm | - | - | - |
| 1788235330 | 14.44° C | 76% | 1019.5 hPa | 0 mm | - | - | - |
| 1788233529 | 14.44° C | 75% | 1019.5 hPa | 0 mm | - | - | - |
| 1788231729 | 15° C | 74% | 1019.6 hPa | 0 mm | - | - | - |
| 1788229930 | 15° C | 74% | 1019.7 hPa | 0 mm | - | - | - |
* Rain since midnight (hover to see other rain measurements)
** Current wind speed in m/s (hover to see current wind gust speed)